Time,TemperatureF,DewpointF,PressureIn,WindDirection,WindDirectionDegrees,WindSpeedMPH,WindSpeedGustMPH,Humidity,HourlyPrecipIn,Conditions,Clouds,dailyrainin,SoftwareType,DateUTC
2013-05-10 00:03:00,49.0,48.0,29.93,South,183,0.0,0.0,98,0.00,,,-99.99,,2013-05-10 04:03:00,
2013-05-10 00:12:00,49.0,48.0,29.93,South,183,0.0,0.0,98,0.00,,,-99.99,,2013-05-10 04:12:00,
2013-05-10 00:23:00,49.0,49.0,29.93,South,183,0.0,0.0,99,0.00,,,-99.99,,2013-05-10 04:23:00,
2013-05-10 00:33:00,49.0,49.0,29.93,South,183,0.0,2.0,99,0.00,,,-99.99,,2013-05-10 04:33:00,
2013-05-10 00:43:00,49.0,49.0,29.93,South,183,0.0,0.0,99,0.00,,,-99.99,,2013-05-10 04:43:00,
2013-05-10 00:53:00,49.0,49.0,29.93,South,183,0.0,0.0,99,0.00,,,-99.99,,2013-05-10 04:53:00,
2013-05-10 01:02:00,49.0,49.0,29.92,South,183,0.0,0.0,99,0.00,,,-99.99,,2013-05-10 05:02:00,
2013-05-10 01:12:00,49.0,49.0,29.92,South,183,0.0,2.0,99,0.00,,,-99.99,,2013-05-10 05:12:00,
2013-05-10 01:22:00,49.0,49.0,29.92,South,183,0.0,2.0,99,0.00,,,-99.99,,2013-05-10 05:22:00,
2013-05-10 01:32:00,49.0,49.0,29.92,South,183,0.0,2.0,99,0.00,,,-99.99,,2013-05-10 05:32:00,
2013-05-10 01:42:00,49.0,48.0,29.91,South,187,0.0,4.0,98,0.00,,,-99.99,,2013-05-10 05:42:00,
2013-05-10 01:52:00,49.0,48.0,29.91,South,187,0.0,4.0,98,0.00,,,-99.99,,2013-05-10 05:52:00,
2013-05-10 02:02:00,49.0,48.0,29.91,SW,221,0.0,4.0,98,0.00,,,-99.99,,2013-05-10 06:02:00,
2013-05-10 02:12:00,49.0,48.0,29.91,SW,221,0.0,4.0,98,0.00,,,-99.99,,2013-05-10 06:12:00,
2013-05-10 02:21:00,49.0,48.0,29.90,SSW,203,0.0,5.0,98,0.00,,,-99.99,,2013-05-10 06:21:00,
2013-05-10 02:32:00,49.0,49.0,29.90,SSW,192,0.0,2.0,99,0.00,,,-99.99,,2013-05-10 06:32:00,
2013-05-10 02:42:00,49.0,49.0,29.90,SSW,192,0.0,2.0,99,0.00,,,-99.99,,2013-05-10 06:42:00,
2013-05-10 02:52:00,49.0,49.0,29.91,SSW,192,0.0,4.0,99,0.00,,,-99.99,,2013-05-10 06:52:00,
2013-05-10 03:02:00,49.0,49.0,29.90,SSW,192,0.0,0.0,99,0.00,,,-99.99,,2013-05-10 07:02:00,
2013-05-10 03:12:00,49.0,49.0,29.90,SSW,192,0.0,0.0,99,0.00,,,-99.99,,2013-05-10 07:12:00,
2013-05-10 03:22:00,49.0,49.0,29.90,SSW,192,0.0,0.0,99,0.00,,,-99.99,,2013-05-10 07:22:00,
2013-05-10 03:32:00,49.0,49.0,29.90,SSW,192,0.0,0.0,99,0.00,,,-99.99,,2013-05-10 07:32:00,
2013-05-10 03:42:00,49.0,49.0,29.89,SSW,192,0.0,0.0,99,0.00,,,-99.99,,2013-05-10 07:42:00,
2013-05-10 03:52:00,49.0,49.0,29.89,SSW,192,0.0,0.0,99,0.00,,,-99.99,,2013-05-10 07:52:00,
2013-05-10 04:02:00,49.0,49.0,29.89,SSW,192,0.0,0.0,99,0.00,,,-99.99,,2013-05-10 08:02:00,
2013-05-10 04:12:00,49.0,49.0,29.89,SSW,192,0.0,0.0,99,0.00,,,-99.99,,2013-05-10 08:12:00,
2013-05-10 04:22:00,49.0,49.0,29.89,SSW,192,0.0,0.0,99,0.00,,,-99.99,,2013-05-10 08:22:00,
2013-05-10 04:32:00,49.0,49.0,29.89,SSW,192,0.0,2.0,99,0.00,,,-99.99,,2013-05-10 08:32:00,
2013-05-10 04:42:00,49.0,49.0,29.89,SSW,192,0.0,2.0,99,0.00,,,-99.99,,2013-05-10 08:42:00,
2013-05-10 04:52:00,49.0,49.0,29.90,SSW,192,0.0,2.0,99,0.00,,,-99.99,,2013-05-10 08:52:00,
2013-05-10 05:02:00,49.0,49.0,29.90,SSW,193,0.0,1.0,99,0.00,,,-99.99,,2013-05-10 09:02:00,
2013-05-10 05:11:00,49.0,49.0,29.90,SSW,193,0.0,1.0,99,0.00,,,-99.99,,2013-05-10 09:11:00,
2013-05-10 05:21:00,49.0,49.0,29.91,SSW,194,0.0,4.0,99,0.00,,,-99.99,,2013-05-10 09:21:00,
2013-05-10 05:33:00,49.0,49.0,29.90,SSW,194,0.0,4.0,99,0.00,,,-99.99,,2013-05-10 09:33:00,
2013-05-10 05:43:00,49.0,49.0,29.90,SSW,194,0.0,4.0,99,0.00,,,-99.99,,2013-05-10 09:43:00,
2013-05-10 05:53:00,49.0,49.0,29.90,SE,137,1.0,4.0,99,0.00,,,-99.99,,2013-05-10 09:53:00,
2013-05-10 06:03:00,49.0,49.0,29.91,South,187,0.0,4.0,99,0.00,,,-99.99,,2013-05-10 10:03:00,
2013-05-10 06:12:00,49.0,49.0,29.91,South,187,0.0,4.0,99,0.00,,,-99.99,,2013-05-10 10:12:00,
2013-05-10 06:23:00,49.0,49.0,29.91,South,191,0.0,0.0,99,0.00,,,-99.99,,2013-05-10 10:23:00,
2013-05-10 06:32:00,49.0,49.0,29.91,South,191,0.0,0.0,99,0.00,,,-99.99,,2013-05-10 10:32:00,
2013-05-10 06:42:00,49.0,49.0,29.91,South,191,0.0,0.0,99,0.00,,,-99.99,,2013-05-10 10:42:00,
2013-05-10 06:53:00,49.0,49.0,29.92,South,191,0.0,0.0,99,0.00,,,-99.99,,2013-05-10 10:53:00,
2013-05-10 07:02:00,50.0,50.0,29.92,WNW,291,0.0,4.0,99,0.00,,,-99.99,,2013-05-10 11:02:00,
2013-05-10 07:12:00,50.0,50.0,29.91,WNW,294,2.0,3.0,99,0.00,,,-99.99,,2013-05-10 11:12:00,
2013-05-10 07:22:00,50.0,50.0,29.91,WNW,294,2.0,3.0,99,0.00,,,-99.99,,2013-05-10 11:22:00,
2013-05-10 07:32:00,51.0,51.0,29.91,WNW,298,0.0,4.0,99,0.00,,,-99.99,,2013-05-10 11:32:00,
2013-05-10 07:42:00,51.0,51.0,29.91,WNW,298,0.0,4.0,99,0.00,,,-99.99,,2013-05-10 11:42:00,
2013-05-10 07:51:00,51.0,51.0,29.92,WNW,299,0.0,2.0,99,0.00,,,-99.99,,2013-05-10 11:51:00,
2013-05-10 08:02:00,51.0,51.0,29.92,WNW,299,0.0,3.0,99,0.00,,,-99.99,,2013-05-10 12:02:00,
2013-05-10 08:12:00,51.0,51.0,29.92,WNW,299,0.0,3.0,99,0.00,,,-99.99,,2013-05-10 12:12:00,
2013-05-10 08:22:00,52.0,52.0,29.92,WNW,299,3.0,4.0,99,0.00,,,-99.99,,2013-05-10 12:22:00,
2013-05-10 08:32:00,52.0,52.0,29.92,WNW,299,0.0,3.0,99,0.00,,,-99.99,,2013-05-10 12:32:00,
2013-05-10 08:42:00,52.0,52.0,29.92,WNW,299,0.0,3.0,99,0.00,,,-99.99,,2013-05-10 12:42:00,
2013-05-10 08:52:00,53.0,53.0,29.91,WNW,299,0.0,2.0,99,0.00,,,-99.99,,2013-05-10 12:52:00,
2013-05-10 09:01:00,53.0,53.0,29.92,NW,319,2.0,4.0,99,0.00,,,-99.99,,2013-05-10 13:01:00,
2013-05-10 09:11:00,53.0,53.0,29.92,NW,319,2.0,4.0,99,0.00,,,-99.99,,2013-05-10 13:11:00,
2013-05-10 09:21:00,54.0,54.0,29.92,NW,312,5.0,7.0,99,0.00,,,-99.99,,2013-05-10 13:21:00,
2013-05-10 09:32:00,55.0,55.0,29.91,NNW,329,0.0,5.0,99,0.00,,,-99.99,,2013-05-10 13:32:00,
2013-05-10 09:42:00,55.0,55.0,29.91,NNW,329,0.0,5.0,99,0.00,,,-99.99,,2013-05-10 13:42:00,
2013-05-10 09:52:00,56.0,56.0,29.91,NNW,328,0.0,6.0,99,0.00,,,-99.99,,2013-05-10 13:52:00,
2013-05-10 10:02:00,57.0,57.0,29.91,ESE,123,0.0,4.0,99,0.00,,,-99.99,,2013-05-10 14:02:00,
2013-05-10 10:11:00,57.0,57.0,29.91,ESE,123,0.0,4.0,99,0.00,,,-99.99,,2013-05-10 14:11:00,
2013-05-10 10:21:00,58.0,58.0,29.91,ESE,116,0.0,3.0,99,0.00,,,-99.99,,2013-05-10 14:21:00,
2013-05-10 10:32:00,59.0,59.0,29.91,ESE,113,0.0,6.0,99,0.00,,,-99.99,,2013-05-10 14:32:00,
2013-05-10 10:42:00,59.0,59.0,29.91,ESE,113,0.0,6.0,99,0.00,,,-99.99,,2013-05-10 14:42:00,
2013-05-10 10:51:00,59.0,58.0,29.91,East,101,0.0,4.0,96,0.00,,,-99.99,,2013-05-10 14:51:00,
2013-05-10 11:02:00,59.0,58.0,29.92,ESE,105,1.0,3.0,95,0.00,,,-99.99,,2013-05-10 15:02:00,
2013-05-10 11:20:00,-999.0,-99.9,29.91,SE,140,0.0,3.0,93,0.00,,,-99.99,,2013-05-10 15:20:00,
2013-05-10 11:32:00,61.0,58.0,29.92,SW,224,0.0,2.0,91,0.00,,,-99.99,,2013-05-10 15:32:00,
2013-05-10 11:42:00,61.0,58.0,29.91,ESE,120,2.0,3.0,90,0.00,,,-99.99,,2013-05-10 15:42:00,
2013-05-10 11:53:00,61.0,58.0,29.91,ESE,120,2.0,3.0,90,0.00,,,-99.99,,2013-05-10 15:53:00,
2013-05-10 12:02:00,62.0,58.0,29.91,South,182,2.0,5.0,88,0.00,,,-99.99,,2013-05-10 16:02:00,
2013-05-10 12:12:00,63.0,59.0,29.91,SE,142,0.0,8.0,87,0.00,,,-99.99,,2013-05-10 16:12:00,
2013-05-10 12:23:00,63.0,59.0,29.91,SE,142,0.0,8.0,87,0.00,,,-99.99,,2013-05-10 16:23:00,
2013-05-10 12:33:00,64.0,61.0,29.91,SE,138,0.0,5.0,89,0.00,,,-99.99,,2013-05-10 16:33:00,
2013-05-10 12:42:00,65.0,60.0,29.89,SE,125,0.0,8.0,85,0.00,,,-99.99,,2013-05-10 16:42:00,
2013-05-10 12:53:00,65.0,60.0,29.89,SE,125,0.0,8.0,85,0.00,,,-99.99,,2013-05-10 16:53:00,
2013-05-10 13:02:00,65.0,59.0,29.90,SSW,199,11.0,14.0,82,0.00,,,-99.99,,2013-05-10 17:02:00,
2013-05-10 13:12:00,65.0,59.0,29.90,SSW,199,11.0,14.0,82,0.00,,,-99.99,,2013-05-10 17:12:00,
2013-05-10 13:22:00,64.0,59.0,29.90,SSE,150,8.0,14.0,84,0.00,,,-99.99,,2013-05-10 17:22:00,
2013-05-10 13:32:00,63.0,58.0,29.90,SSW,205,6.0,12.0,84,0.00,,,-99.99,,2013-05-10 17:32:00,
2013-05-10 13:42:00,63.0,58.0,29.91,SSE,167,0.0,12.0,83,0.00,,,-99.99,,2013-05-10 17:42:00,
2013-05-10 13:52:00,63.0,58.0,29.91,SSE,167,0.0,12.0,83,0.00,,,-99.99,,2013-05-10 17:52:00,
2013-05-10 14:10:00,-999.0,-99.9,29.90,SE,134,6.0,12.0,84,0.00,,,-99.99,,2013-05-10 18:10:00,
2013-05-10 14:22:00,64.0,58.0,29.90,East,100,2.0,11.0,82,0.00,,,-99.99,,2013-05-10 18:22:00,
2013-05-10 14:34:00,64.0,59.0,29.90,SSW,195,11.0,13.0,83,0.00,,,-99.99,,2013-05-10 18:34:00,
2013-05-10 14:43:00,63.0,58.0,29.90,SSW,204,7.0,13.0,83,0.00,,,-99.99,,2013-05-10 18:43:00,
2013-05-10 14:54:00,63.0,58.0,29.90,SSW,204,7.0,13.0,83,0.00,,,-99.99,,2013-05-10 18:54:00,
2013-05-10 15:02:00,64.0,58.0,29.90,SSE,149,0.0,11.0,82,0.00,,,-99.99,,2013-05-10 19:02:00,
2013-05-10 15:11:00,64.0,58.0,29.90,SSE,149,0.0,11.0,82,0.00,,,-99.99,,2013-05-10 19:11:00,
2013-05-10 15:21:00,64.0,58.0,29.90,SSE,160,0.0,12.0,81,0.00,,,-99.99,,2013-05-10 19:21:00,
2013-05-10 15:32:00,65.0,58.0,29.90,SE,129,0.0,12.0,79,0.00,,,-99.99,,2013-05-10 19:32:00,
2013-05-10 15:42:00,64.0,58.0,29.90,WSW,241,0.0,12.0,81,0.00,,,-99.99,,2013-05-10 19:42:00,
2013-05-10 15:52:00,64.0,58.0,29.90,WSW,241,0.0,12.0,81,0.00,,,-99.99,,2013-05-10 19:52:00,
2013-05-10 16:02:00,64.0,57.0,29.90,SE,135,2.0,12.0,79,0.00,,,-99.99,,2013-05-10 20:02:00,
2013-05-10 16:12:00,64.0,57.0,29.90,SE,135,2.0,12.0,79,0.00,,,-99.99,,2013-05-10 20:12:00,
2013-05-10 16:22:00,63.0,57.0,29.90,SSW,197,13.0,14.0,81,0.00,,,-99.99,,2013-05-10 20:22:00,
2013-05-10 16:32:00,63.0,57.0,29.91,South,189,0.0,11.0,81,0.00,,,-99.99,,2013-05-10 20:32:00,
2013-05-10 16:42:00,63.0,57.0,29.91,South,189,0.0,11.0,81,0.00,,,-99.99,,2013-05-10 20:42:00,
2013-05-10 16:52:00,61.0,55.0,29.91,SE,131,1.0,12.0,82,0.00,,,-99.99,,2013-05-10 20:52:00,
2013-05-10 17:02:00,61.0,55.0,29.91,SW,216,4.0,9.0,82,0.00,,,-99.99,,2013-05-10 21:02:00,
2013-05-10 17:11:00,61.0,55.0,29.91,SW,216,4.0,9.0,82,0.00,,,-99.99,,2013-05-10 21:11:00,
2013-05-10 17:25:00,63.0,57.0,29.91,West,259,0.0,7.0,82,0.00,,,-99.99,,2013-05-10 21:25:00,
2013-05-10 17:32:00,63.0,57.0,29.91,SSW,207,0.0,7.0,80,0.00,,,-99.99,,2013-05-10 21:32:00,
2013-05-10 17:43:00,63.0,57.0,29.91,WSW,256,0.0,7.0,81,0.00,,,-99.99,,2013-05-10 21:43:00,
2013-05-10 17:53:00,63.0,57.0,29.91,WSW,256,0.0,7.0,81,0.00,,,-99.99,,2013-05-10 21:53:00,
2013-05-10 18:02:00,64.0,57.0,29.91,SSW,197,0.0,5.0,79,0.00,,,-99.99,,2013-05-10 22:02:00,
2013-05-10 18:13:00,64.0,57.0,29.91,SSW,197,0.0,5.0,79,0.00,,,-99.99,,2013-05-10 22:13:00,
2013-05-10 18:22:00,64.0,58.0,29.91,SSW,197,0.0,5.0,80,0.00,,,-99.99,,2013-05-10 22:22:00,
2013-05-10 18:32:00,64.0,58.0,29.91,SSE,158,4.0,5.0,80,0.00,,,-99.99,,2013-05-10 22:32:00,
2013-05-10 18:42:00,63.0,57.0,29.91,SSW,192,1.0,5.0,81,0.00,,,-99.99,,2013-05-10 22:42:00,
2013-05-10 18:52:00,63.0,57.0,29.91,SSW,192,1.0,5.0,81,0.00,,,-99.99,,2013-05-10 22:52:00,
2013-05-10 19:02:00,62.0,57.0,29.93,SSW,192,0.0,2.0,84,0.00,,,-99.99,,2013-05-10 23:02:00,
2013-05-10 19:12:00,62.0,57.0,29.93,SSW,192,0.0,2.0,84,0.00,,,-99.99,,2013-05-10 23:12:00,
2013-05-10 19:22:00,61.0,56.0,29.93,SSW,192,0.0,1.0,85,0.00,,,-99.99,,2013-05-10 23:22:00,
2013-05-10 19:33:00,60.0,56.0,29.93,SSW,210,0.0,2.0,87,0.00,,,-99.99,,2013-05-10 23:33:00,
2013-05-10 19:42:00,58.0,55.0,29.93,ESE,104,0.0,3.0,89,0.00,,,-99.99,,2013-05-10 23:42:00,
2013-05-10 19:52:00,58.0,55.0,29.93,ESE,104,0.0,3.0,89,0.00,,,-99.99,,2013-05-10 23:52:00,
2013-05-10 20:02:00,57.0,54.0,29.92,ENE,59,0.0,2.0,90,0.00,,,-99.99,,2013-05-11 00:02:00,
2013-05-10 20:11:00,57.0,54.0,29.92,ENE,59,0.0,2.0,90,0.00,,,-99.99,,2013-05-11 00:11:00,
2013-05-10 20:21:00,56.0,53.0,29.93,SSE,151,0.0,4.0,91,0.00,,,-99.99,,2013-05-11 00:21:00,
2013-05-10 20:32:00,55.0,53.0,29.93,SSE,151,0.0,1.0,92,0.00,,,-99.99,,2013-05-11 00:32:00,
2013-05-10 20:42:00,54.0,52.0,29.94,SSE,151,0.0,2.0,92,0.00,,,-99.99,,2013-05-11 00:42:00,
2013-05-10 20:52:00,54.0,52.0,29.94,SSE,151,0.0,2.0,92,0.00,,,-99.99,,2013-05-11 00:52:00,
2013-05-10 21:01:00,53.0,51.0,29.95,SSE,151,0.0,0.0,94,0.00,,,-99.99,,2013-05-11 01:01:00,
2013-05-10 21:11:00,53.0,51.0,29.95,SSE,151,0.0,0.0,94,0.00,,,-99.99,,2013-05-11 01:11:00,
2013-05-10 21:21:00,53.0,51.0,29.95,SSE,151,0.0,0.0,94,0.00,,,-99.99,,2013-05-11 01:21:00,
2013-05-10 21:32:00,52.0,50.0,29.95,SSE,161,0.0,4.0,94,0.00,,,-99.99,,2013-05-11 01:32:00,
2013-05-10 21:42:00,52.0,50.0,29.95,SSE,161,0.0,4.0,94,0.00,,,-99.99,,2013-05-11 01:42:00,
2013-05-10 21:52:00,52.0,51.0,29.95,South,184,0.0,2.0,95,0.00,,,-99.99,,2013-05-11 01:52:00,
2013-05-10 22:02:00,51.0,50.0,29.96,SSW,202,0.0,4.0,95,0.00,,,-99.99,,2013-05-11 02:02:00,
2013-05-10 22:11:00,51.0,50.0,29.96,SSW,202,0.0,4.0,95,0.00,,,-99.99,,2013-05-11 02:11:00,
2013-05-10 22:22:00,51.0,50.0,29.96,SSW,202,0.0,2.0,95,0.00,,,-99.99,,2013-05-11 02:22:00,
2013-05-10 22:32:00,50.0,49.0,29.96,WSW,237,0.0,4.0,96,0.00,,,-99.99,,2013-05-11 02:32:00,
2013-05-10 22:42:00,50.0,49.0,29.96,South,189,4.0,6.0,96,0.00,,,-99.99,,2013-05-11 02:42:00,
2013-05-10 22:52:00,50.0,49.0,29.96,South,189,4.0,6.0,96,0.00,,,-99.99,,2013-05-11 02:52:00,
2013-05-10 23:01:00,50.0,49.0,29.96,SW,216,0.0,5.0,96,0.00,,,-99.99,,2013-05-11 03:01:00,
2013-05-10 23:11:00,50.0,49.0,29.96,SW,216,0.0,5.0,96,0.00,,,-99.99,,2013-05-11 03:11:00,
2013-05-10 23:21:00,50.0,49.0,29.96,South,176,1.0,7.0,96,0.00,,,-99.99,,2013-05-11 03:21:00,
2013-05-10 23:33:00,49.0,48.0,29.96,SSW,195,0.0,5.0,96,0.00,,,-99.99,,2013-05-11 03:33:00,
2013-05-10 23:42:00,49.0,48.0,29.96,SSW,195,0.0,5.0,96,0.00,,,-99.99,,2013-05-11 03:42:00,
2013-05-10 23:53:00,49.0,48.0,29.96,SSW,195,0.0,4.0,96,0.00,,,-99.99,,2013-05-11 03:53:00,